小惑星イダルゴ

(944) Hidalgo (1991)

English version
Home page
Updated on October 20, 2003

---------------------------------------------------------------------

・ プロフィール

・ 軌道要素

   The following improved orbital elements by Kenji Muraoka, are 
  from 208 observations 1920 to 1999, perturbations by 9 Plantes,
  Moon and 5 minor planets were taken into account.
   The mean residual is +/- 1.02 arc seconds.

          T  =  1991 Apr.  1.59579  TT    Epoch  =  1991 Apr. 14.0  TT
       Peri. =   57.35248                     e  =    0.6574060
       Node  =   21.69222    (2000.0)         a  =    5.8368599 AU
       Incl. =   42.41988                     n゜ =    0.069893239
          q  =    1.9996732 AU                P  =   14.102 years

・ 星図

・ 1990年 1月 3日〜1991年 6月27日
・ 1991年 4月 8日〜1993年 8月15日

・ 光度変化

        H = 10.8  G = 0.15

---------------------------------------------------------------------

軌道要素は村岡健治氏の計算によるものです。
星図は StellaNavigator Ver.2.0 for Windows (アストロアーツ 編著 / アスキー出版局刊) で作成したものです。
光度グラフはComet for Windowsで作成したものです。

---------------------------------------------------------------------

Copyright(C) Seiichi Yoshida (comet@aerith.net). All rights reserved.